This is the latest recevied weather packets stored in our database for station/object KO4DYK. If no packets are shown the sender has not sent any weather packets the latest 10 day(s).
| Time | Temp. | Humidity | Pressure | Rain* | Wind** | Luminosity | Snow |
|---|---|---|---|---|---|---|---|
| 1777743456 | 21.67° C | 41% | 1022.1 hPa | 0 mm | - | 688 W/m² | - |
| 1777743153 | 21.67° C | 42% | 1022.1 hPa | 0 mm | - | 495 W/m² | - |
| 1777742851 | 20° C | 44% | 1022.3 hPa | 0 mm | - | 865 W/m² | - |
| 1777742547 | 20.56° C | 44% | 1022.4 hPa | 0 mm | - | 215 W/m² | - |
| 1777742243 | 20° C | 41% | 1022.5 hPa | 0 mm | - | 252 W/m² | - |
| 1777741940 | 20° C | 44% | 1022.4 hPa | 0 mm | - | 386 W/m² | - |
| 1777741637 | 20.56° C | 39% | 1022.5 hPa | 0 mm | - | 540 W/m² | - |
| 1777741334 | 21.11° C | 40% | 1022.3 hPa | 0 mm | - | 698 W/m² | - |
| 1777741030 | 20.56° C | 39% | 1022.7 hPa | 0 mm | - | 757 W/m² | - |
| 1777740727 | 20.56° C | 41% | 1022.5 hPa | 0 mm | - | 675 W/m² | - |
| 1777740423 | 20.56° C | 42% | 1022.6 hPa | 0 mm | - | 763 W/m² | - |
| 1777740121 | 20.56° C | 43% | 1022.7 hPa | 0 mm | - | 741 W/m² | - |
| 1777739816 | 20° C | 42% | 1022.6 hPa | 0 mm | - | 719 W/m² | - |
| 1777739513 | 21.11° C | 40% | 1022.7 hPa | 0 mm | - | 729 W/m² | - |
| 1777739210 | 21.67° C | 43% | 1022.7 hPa | 0 mm | - | 728 W/m² | - |
| 1777738907 | 20° C | 47% | 1022.9 hPa | 0 mm | - | 710 W/m² | - |
| 1777738604 | 19.44° C | 44% | 1023 hPa | 0 mm | - | 701 W/m² | - |
| 1777738301 | 18.89° C | 44% | 1023.1 hPa | 0 mm | - | 689 W/m² | - |
| 1777737999 | 18.89° C | 45% | 1022.9 hPa | 0 mm | - | 718 W/m² | - |
| 1777737697 | 19.44° C | 44% | 1023 hPa | 0 mm | - | 734 W/m² | - |
| 1777737395 | 19.44° C | 46% | 1023.1 hPa | 0 mm | - | 676 W/m² | - |
| 1777737092 | 18.89° C | 45% | 1023.2 hPa | 0 mm | - | 628 W/m² | - |
| 1777736788 | 18.33° C | 48% | 1023.1 hPa | 0 mm | - | 723 W/m² | - |
| 1777736160 | 18.89° C | 46% | 1023.1 hPa | 0 mm | - | 751 W/m² | - |
| 1777735857 | 18.89° C | 44% | 1022.9 hPa | 0 mm | - | 721 W/m² | - |
* Rain latest hour (hover to see other rain measurements)
** Current wind speed in m/s (hover to see current wind gust speed)